Glacier Highway @ Cohen Drive MP 21 current weather conditions

sailwx.info

Wind from 140

Air temperature 4.0° C
Visibility: greater than 1.1 NM
Dewpoint -6.3° C

Last reported at 2020-Oct-24 21:50 UTC.
Time now 2020-Oct-24 23:10 UTC

Location: N 58°28' W 134°47'.
View on Google Maps.

See reports from other nearby stations

  
Tides and Currents Weather Stations Pressure Air Temp Water Temp Dewpoint Dewpoint Depression Visibility Wind Speed Wind Dir Waves Ship Positions
date/time (UTC)wind fromknots sea level pressurealtimeterstation pressurevisibilityair tempwater tempwave heightnotes
2020-Oct-24 21:50 140 1.1 4.0
2020-Oct-24 21:40 270 1.1 3.7
2020-Oct-24 21:30 235 0 gusting 2 1.1 3.9
2020-Oct-24 21:20 240 1.1 3.7
2020-Oct-24 21:10 075 1.1 3.4
2020-Oct-24 21:00 240 1.1 2.9
2020-Oct-24 20:50 180 1 gusting 2 1.1 2.7
2020-Oct-24 20:40 1.1 3.0
2020-Oct-24 20:30 095 1.1 3.0
2020-Oct-24 20:20 185 0 gusting 1 1.1 2.9
2020-Oct-24 20:10 300 0 gusting 1 1.1 1.9
2020-Oct-24 20:00 215 1.1 1.3
2020-Oct-24 19:50 265 1.1 1.0
2020-Oct-24 19:40 155 0 gusting 1 1.1 0.5
2020-Oct-24 19:30 335 1.1 0.1
2020-Oct-24 19:20 050 1.1-0.3
2020-Oct-24 19:10 155 1.1-1.0
2020-Oct-24 19:00 155 1.1-1.1
2020-Oct-24 18:50 155 1.1-1.5
2020-Oct-24 18:40 155 1.1-1.6
2020-Oct-24 18:30 155 1.1-1.8
2020-Oct-24 18:20 155 1.1-1.8
2020-Oct-24 18:10 155 1.1-2.0
2020-Oct-24 18:00 155 1.1-2.1
2020-Oct-24 17:50 155 1.1-2.2
2020-Oct-24 17:40 155 1.1-2.5
2020-Oct-24 17:30 155 1.1-2.7
2020-Oct-24 17:20 155 1.1-2.9
2020-Oct-24 17:10 155 1.1-2.9
2020-Oct-24 17:00 155 1.1-2.9
2020-Oct-24 16:50 155 1.1-3.1
2020-Oct-24 16:40 155 1.1-3.1
2020-Oct-24 16:30 155 1.1-3.0
2020-Oct-24 16:20 155 1.1-3.3
2020-Oct-24 16:10 155 1.1-3.2
2020-Oct-24 16:00 155 1.1-3.3
2020-Oct-24 15:50 155 1.1-3.4
2020-Oct-24 15:40 155 1.1-3.4
2020-Oct-24 15:30 155 1.1-3.5
2020-Oct-24 15:20 155 1.1-3.5
2020-Oct-24 15:10 155 1.1-3.6
2020-Oct-24 15:00 155 1.1-3.6
2020-Oct-24 14:50 155 1.1-3.6
2020-Oct-24 14:40 155 1.1-3.6
2020-Oct-24 14:30 155 1.1-3.6
2020-Oct-24 14:20 155 1.1-3.6
2020-Oct-24 14:10 155 1.1-3.6
2020-Oct-24 14:00 255 1.1-3.6
2020-Oct-24 13:50 255 1.1-3.5
2020-Oct-24 13:40 255 1.1-3.3
2020-Oct-24 13:30 175 1.1-3.3
2020-Oct-24 13:20 155 1.1-3.2
2020-Oct-24 13:10 145 1.1-3.2
2020-Oct-24 13:00 145 1.1-3.2
2020-Oct-24 12:50 145 1.1-3.3
2020-Oct-24 12:40 145 1.1-3.4
2020-Oct-24 12:30 145 1.1-3.3
2020-Oct-24 12:20 145 1.1-3.3
2020-Oct-24 12:10 145 1.1-3.3
2020-Oct-24 12:00 145 1.1-3.3
2020-Oct-24 11:50 145 1.1-3.3
2020-Oct-24 11:40 150 1.1-3.2
2020-Oct-24 11:30 150 1.1-3.3
2020-Oct-24 11:20 150 1.1-3.3
2020-Oct-24 11:10 150 1.1-3.3
2020-Oct-24 11:00 150 1.1-3.1
2020-Oct-24 10:50 160 1.1-3.4
2020-Oct-24 10:40 160 1.1-3.3
2020-Oct-24 10:30 160 1.1-3.2
2020-Oct-24 10:20 160 1.1-3.0
2020-Oct-24 10:10 160 1.1-3.0
2020-Oct-24 10:00 160 1.1-3.0
2020-Oct-24 09:50 160 1.1-2.9
2020-Oct-24 09:40 160 1.1-2.9
2020-Oct-24 09:30 160 1.1-2.8
2020-Oct-24 09:20 165 1.1-2.8
2020-Oct-24 09:10 135 1.1-2.8
2020-Oct-24 09:00 135 1.1-2.8
2020-Oct-24 08:50 135 1.1-2.8
2020-Oct-24 08:40 135 1.1-2.7
2020-Oct-24 08:30 090 0 gusting 2 1.1-2.7
2020-Oct-24 08:20 135 0 gusting 1 1.1-2.7
2020-Oct-24 08:10 155 1.1-2.8
2020-Oct-24 08:00 155 1.1-2.9
2020-Oct-24 07:50 145 1.1-2.9
2020-Oct-24 07:40 150 0 gusting 1 1.1-2.8
2020-Oct-24 07:30 150 1.1-2.7
2020-Oct-24 07:20 150 1.1-2.8
2020-Oct-24 07:10 150 1.1-2.5
2020-Oct-24 07:00 150 1.1-2.5
2020-Oct-24 06:50 150 1.1-2.6
2020-Oct-24 06:40 160 1.1-2.5
2020-Oct-24 06:30 160 1.1-2.5
2020-Oct-24 06:20 160 1.1-2.6
2020-Oct-24 06:10 160 1.1-2.6
2020-Oct-24 06:00 160 1.1-2.5
2020-Oct-24 05:50 145 1.1-2.7
2020-Oct-24 05:40 145 1.1-2.6
2020-Oct-24 05:30 155 1.1-2.6
2020-Oct-24 05:20 150 1.1-2.6
2020-Oct-24 05:10 160 1.1-2.4
2020-Oct-24 05:00 160 1.1-2.3
2020-Oct-24 04:50 160 1 gusting 1 1.1-2.3
2020-Oct-24 04:40 160 1.1-2.4
2020-Oct-24 04:30 160 1.1-2.4
2020-Oct-24 04:20 160 1.1-2.3
2020-Oct-24 04:10 160 1.1-2.2
2020-Oct-24 04:00 160 1.1-2.2
2020-Oct-24 03:50 160 1.1-2.2
2020-Oct-24 03:40 175 1.1-2.2
2020-Oct-24 03:30 150 1.1-2.1
2020-Oct-24 03:20 145 0 gusting 1 1.1-2.0
2020-Oct-24 03:10 145 1.1-1.9
2020-Oct-24 03:00 145 1.1-2.0
2020-Oct-24 02:50 315 1.1-1.8
2020-Oct-24 02:40 165 1.1-1.7
2020-Oct-24 02:20 145 1.1-1.6
2020-Oct-24 02:10 155 1.1-1.5
2020-Oct-24 02:00 165 0 gusting 1 1.1-1.3
2020-Oct-24 01:50 150 1.1-1.1
2020-Oct-24 01:40 145 1.1-1.0
2020-Oct-24 01:30 150 1.1-0.9
2020-Oct-24 01:20 150 1.1-0.5
2020-Oct-24 01:10 145 1.1-0.3
2020-Oct-24 01:00 150 1.1-0.0
2020-Oct-24 00:50 100 1.1 0.3
2020-Oct-24 00:40 100 1.1 0.9
2020-Oct-24 00:30 055 1.1 1.4
2020-Oct-24 00:20 1.1 1.9
2020-Oct-24 00:10 345 1 gusting 6 1.1 2.5
2020-Oct-24 00:00 275 1 gusting 4 1.1 2.5
2020-Oct-23 23:50 080 1.1 3.0
2020-Oct-23 23:40 325 2 gusting 5 1.1 3.0
2020-Oct-23 23:30 325 2 gusting 7 1.1 3.1
2020-Oct-23 23:20 035 1 gusting 6 1.1 3.3
2020-Oct-23 23:10 025 1 gusting 6 1.1 3.7
2020-Oct-23 23:00 1.1 3.8
2020-Oct-23 22:50 310 1 gusting 4 1.1 3.6
2020-Oct-23 22:40 320 2 gusting 10 1.1 4.0
2020-Oct-23 22:30 005 2 gusting 6 1.1 4.0
2020-Oct-23 22:20 320 3 gusting 7 1.1 4.2
2020-Oct-23 22:10 085 1 gusting 12 1.1 4.4
2020-Oct-23 22:00 320 1 gusting 7 1.1 4.5
2020-Oct-23 21:50 030 2 gusting 10 1.1 4.7
2020-Oct-23 21:40 320 1 gusting 6 1.1 4.8
2020-Oct-23 21:30 320 3 gusting 8 1.1 4.8
2020-Oct-23 21:20 045 1 gusting 4 1.1 4.5
2020-Oct-23 21:10 300 1 gusting 7 1.1 4.4
2020-Oct-23 21:00 005 1 gusting 8 1.1 4.4
2020-Oct-23 20:50 340 1 gusting 7 1.1 4.3
2020-Oct-23 20:40 325 4 gusting 9 1.1 4.2
2020-Oct-23 20:30 315 3 gusting 10 1.1 3.7
2020-Oct-23 20:20 330 2 gusting 7 1.1 3.4
2020-Oct-23 20:10 180 1.1 3.0
2020-Oct-23 20:00 325 2 gusting 5 1.1 2.2
2020-Oct-23 19:50 305 2 gusting 7 1.1 1.3
2020-Oct-23 19:40 020 1 gusting 6 1.1 0.5
2020-Oct-23 19:30 025 0 gusting 5 1.1-0.0
2020-Oct-23 19:20 120 0 gusting 3 1.1-0.6
2020-Oct-23 19:10 065 1.1-1.5
2020-Oct-23 19:00 125 1.1-1.6
2020-Oct-23 18:50 085 1.1-2.3
2020-Oct-23 18:40 340 1.1-2.7
2020-Oct-23 18:30 135 1.1-3.1
2020-Oct-23 18:20 030 1.1-3.5
2020-Oct-23 18:10 145 1.1-3.5
2020-Oct-23 18:00 155 0 gusting 1 1.1-3.6
2020-Oct-23 17:50 140 1.1-3.6
2020-Oct-23 17:40 155 1.1-3.7
2020-Oct-23 17:30 165 1.1-3.8
2020-Oct-23 17:20 165 1.1-3.8
2020-Oct-23 17:10 165 0 gusting 1 1.1-3.9
2020-Oct-23 17:00 165 1.1-4.0
2020-Oct-23 16:50 165 1.1-4.1
2020-Oct-23 16:40 045 1.1-4.3
2020-Oct-23 16:30 120 0 gusting 1 1.1-4.2
2020-Oct-23 16:20 145 1.1-4.4
2020-Oct-23 16:10 095 0 gusting 2 1.1-4.4
2020-Oct-23 16:00 145 0 gusting 1 1.1-4.4
2020-Oct-23 15:50 165 1.1-4.3
2020-Oct-23 15:40 325 1.1-4.2
2020-Oct-23 15:30 055 1.1-4.4
2020-Oct-23 15:20 080 1.1-4.3
2020-Oct-23 15:10 150 1.1-4.4
2020-Oct-23 15:00 155 1.1-4.4
2020-Oct-23 14:50 165 1 gusting 2 1.1-4.4
2020-Oct-23 14:40 020 1.1-4.4
2020-Oct-23 14:30 115 1.1-4.4
2020-Oct-23 14:20 130 1.1-4.3
2020-Oct-23 14:10 130 1.1-4.3
2020-Oct-23 14:00 130 1.1-4.2
2020-Oct-23 13:50 130 1.1-4.2
2020-Oct-23 13:40 330 1.1-4.4
2020-Oct-23 13:30 165 1 gusting 2 1.1-4.3
2020-Oct-23 13:20 140 0 gusting 1 1.1-4.2
2020-Oct-23 13:10 145 1.1-4.3
2020-Oct-23 13:00 070 1.1-4.3
2020-Oct-23 12:50 345 0 gusting 1 1.1-4.4
2020-Oct-23 12:40 160 1.1-4.3
2020-Oct-23 12:30 150 0 gusting 1 1.1-4.3
2020-Oct-23 12:20 160 0 gusting 1 1.1-4.2
2020-Oct-23 12:10 125 1.1-4.3
2020-Oct-23 12:00 150 1.1-4.3
2020-Oct-23 11:50 145 1.1-4.2
2020-Oct-23 11:40 145 1.1-4.2
2020-Oct-23 11:30 145 1.1-4.3
2020-Oct-23 11:20 145 1.1-4.2
2020-Oct-23 11:10 150 0 gusting 1 1.1-4.1
2020-Oct-23 11:00 150 1.1-4.1
2020-Oct-23 10:50 155 1.1-4.1
2020-Oct-23 10:40 155 1.1-4.1
2020-Oct-23 10:30 160 1.1-4.1
2020-Oct-23 10:20 150 0 gusting 1 1.1-4.1
2020-Oct-23 10:10 145 0 gusting 1 1.1-4.2
2020-Oct-23 10:00 155 1.1-4.1
2020-Oct-23 09:50 155 1.1-4.1
2020-Oct-23 09:40 155 1.1-4.2
2020-Oct-23 09:30 155 1.1-4.2
2020-Oct-23 09:20 150 1.1-4.1
2020-Oct-23 09:10 150 1.1-4.1
2020-Oct-23 09:00 150 0 gusting 1 1.1-4.1
2020-Oct-23 08:50 185 1.1-4.1
2020-Oct-23 08:40 145 1.1-4.2
2020-Oct-23 08:30 145 1.1-4.1
2020-Oct-23 08:20 140 1.1-4.1
2020-Oct-23 08:10 155 1.1-4.1
2020-Oct-23 08:00 155 1.1-4.1
2020-Oct-23 07:50 155 1 gusting 1 1.1-4.1
2020-Oct-23 07:40 150 1.1-4.0
2020-Oct-23 07:30 150 1.1-4.1
2020-Oct-23 07:20 150 1.1-4.0
2020-Oct-23 07:10 150 1.1-4.0
2020-Oct-23 07:00 195 1.1-4.0
2020-Oct-23 06:50 160 1.1-4.0
2020-Oct-23 06:40 160 1.1-4.0
2020-Oct-23 06:30 160 1.1-4.0
2020-Oct-23 06:20 160 1.1-4.0
2020-Oct-23 06:10 160 1.1-4.0
2020-Oct-23 06:00 165 1.1-3.9
2020-Oct-23 05:50 165 1.1-3.8
2020-Oct-23 05:40 165 1.1-3.7
2020-Oct-23 05:30 155 0 gusting 1 1.1-3.6
2020-Oct-23 05:20 150 1.1-3.7
2020-Oct-23 05:10 150 1.1-3.8
2020-Oct-23 05:00 150 1.1-3.8
2020-Oct-23 04:50 150 1.1-3.8
2020-Oct-23 04:40 150 1.1-3.8
2020-Oct-23 04:30 145 1.1-3.7
2020-Oct-23 04:20 145 1.1-3.7
2020-Oct-23 04:10 145 1.1-3.5
2020-Oct-23 04:00 190 1.1-3.6
2020-Oct-23 03:50 190 1.1-3.5
2020-Oct-23 03:40 190 1.1-3.5
2020-Oct-23 03:30 190 1.1-3.4
2020-Oct-23 03:10 190 1.1-3.3
2020-Oct-23 03:00
2020-Oct-23 02:50 190 1.1-3.1
2020-Oct-23 02:40 190 1.1-3.0
2020-Oct-23 02:30 140 1 gusting 2 1.1-2.9
2020-Oct-23 02:20 160 1.1-2.9
2020-Oct-23 02:10 150 1.1-2.7
2020-Oct-23 02:00 170 1.1-2.5
2020-Oct-23 01:50 140 1.1-2.3
2020-Oct-23 01:40 140 1.1-2.1
2020-Oct-23 01:30 105 1.1-1.9
2020-Oct-23 01:20 105 1.1-1.7
2020-Oct-23 01:10 085 1.1-1.6
2020-Oct-23 01:00 120 1.1-1.5
2020-Oct-23 00:50 180 1.1-1.2
2020-Oct-23 00:40 125 1.1-0.9
2020-Oct-23 00:30 095 1.1-0.6
2020-Oct-23 00:20 095 1.1-0.4
2020-Oct-23 00:10 095 1.1-0.3
2020-Oct-23 00:00 095 1.1-0.1
2020-Oct-22 23:50 095 1.1 0.3
2020-Oct-22 23:40 095 1.1 0.7
2020-Oct-22 23:30 095 1.1 1.1
2020-Oct-22 23:20 165 1 gusting 3 1.1 1.6
2020-Oct-22 23:10 165 1 gusting 2 1.1 1.5
2020-Oct-22 23:00 125 0 gusting 1 1.1 0.9